Location: Oberstdorf
(47.4188°N, 10.2969°E)
Time: 03:45:03
(UTC+01:00)

ISS - Pass Details

Date: 11 January 2018
Orbit: 402 x 407 km, 51.6° (Epoch: 21 January)

Event Time Altitude Azimuth Distance (km) Brightness Sun altitude
Exits shadow 05:41:03 39° 68° (ENE) 632 -2.5 -23.4°
Drops below altitude 10° 05:43:24 10° 95° (E) 1,466 0.1 -23.0°
Sets 05:45:31 0° 100° (E) 2,326 1.5 -22.7°
